Regional Weather Roundup
Issued by NWS New Orleans/Baton Rouge, LA

Current Version | Previous Version | Text Only | Print | Product List | Glossary On
Versions: 1 2 3 4 5 6 7 8 9 10 11 12 13 14 15 16 17 18 19 20 21 22 23 24 25 26 27 28 29 30 31 32 33 34 35 36 37 38 39 40 41 42 43 44 45 46 47 48 49 50
726
ASUS44 KLIX 282313
RWRLIX
NEW ORLEANS REGIONAL WEATHER ROUNDUP
NATIONAL WEATHER SERVICE NEW ORLEANS LA
600 PM CDT TUE MAR 28 2017

NOTE: "FAIR" INDICATES FEW OR NO CLOUDS BELOW 12,000 FEET WITH NO
      SIGNIFICANT WEATHER AND/OR OBSTRUCTIONS TO VISIBILITY.
      SKY/WX - SKY CONDITION AND SIGNIFICANT WEATHER.
      TMP - AIR TEMPERATURE.     DP    - DEWPOINT TEMPERATURE.
      RH  - RELATIVE HUMIDITY.   PRES  - PRESSURE.
      HI  - HEAT INDEX.          WCI   - WIND CHILL INDEX.

*  THESE STATIONS ARE NOT NWS OR FAA STATIONS AND ARE NOT UNDER
   NWS QUALITY CONTROL.

LAZ038-040-048-061>063-065>067-069-290000-
SOUTHEAST LOUISIANA

CITY           SKY/WX    TMP DP  RH WIND       PRES   REMARKS
N.O. INTL ARPT MOSUNNY   78  62  57 S14       29.94S
N.O. LAKEFRONT MOSUNNY   80  66  62 S15       29.95R
N.O. DOWNTOWN* NOT AVBL
RESERVE*       MOCLDY    80  66  63 SE12      29.93S
SLIDELL        SUNNY     80  64  58 S12       29.94S
BATON ROUGE    MOSUNNY   82  64  54 S13       29.90S
BOOTHVILLE     MOSUNNY   77  68  73 S10       29.97R
BELLE CHASSE   MOSUNNY   82  67  60 S13       29.95S
BOGALUSA*      NOT AVBL
GALLIANO*      CLEAR     77  64  64 SE9       29.95S
NEW ROADS*       N/A     82  63  52 S10       29.89S
GONZALES*      NOT AVBL
HAMMOND*       MOSUNNY   81  61  50 S12G17    29.93R
HOUMA*         MOSUNNY   77  68  73 SE10      29.94F
PORT FOURCHON* PTCLDY    77  68  73 SE10      29.95S

$$

MSZ070-080>082-290000-
SOUTHERN MISSISSIPPI

CITY           SKY/WX    TMP DP  RH WIND       PRES   REMARKS
MCCOMB         SUNNY     81  61  50 S10       29.91S
GULFPORT       SUNNY     76  68  76 S10       29.96R
BILOXI         MOSUNNY   76  70  81 S10       29.96S
PASCAGOULA     SUNNY     77  64  64 S6        29.96S
STENNIS ARPT*  MOSUNNY   77  64  65 S13       29.96

$$

COASTAL OBSERVATIONS
LAKE AND NEARSHORE STATIONS

STATION/POSITION TIME  TEMP    WIND        PRES    WAVE
                       AIR SEA DIR/SP/G            HT/PER
                 (UTC) (F)     (DEG/KT/KT) (MB)    (FT/S)
PASCAGOULA       2248   76     180/  6/ 10 1014.4
WAVELAND YACHT   2248          180/  9/ 14 1014.2
GRAND ISLE       2248   75 76  160/  5/ 10 1014.3
SOUTHWEST PASS   2248          140/  3/  6   N/A
NEW CANAL        2248   80 75  170/  8/ 13 1013.9
SHELL BEACH      2248          160/ 12/ 15 1014.5

OFFSHORE STATIONS

STATION/POSITION TIME  TEMP    WIND        PRES    WAVE
                       AIR SEA DIR/SP/G            HT/PER
                 (UTC) (F)     (DEG/KT/KT) (MB)    (FT/S)
64 S DAUPHIN ISL 2250   74 74  150/ 10/ 12 1015.3    3/ 5

$$





USA.gov is the U.S. government's official web portal to all federal, state and local government web resources and services.